Regional Weather Roundup
Issued by NWS

Home | Current Version | Previous Version | Text Only | Print | Product List | Glossary On
Versions: 1 2 3 4 5 6 7 8 9 10 11 12 13 14 15 16 17 18 19 20 21 22 23 24 25 26 27 28 29 30 31 32 33 34 35 36 37 38 39 40 41 42 43 44 45 46 47 48 49 50
000
ASUS44 KLIX 020511
RWRLA
LOUISIANA WEATHER ROUNDUP
NATIONAL WEATHER SERVICE NEW ORLEANS LA
1200 AM CDT THU APR 02 2015

NOTE: "FAIR" INDICATES FEW OR NO CLOUDS BELOW 12,000 FEET WITH NO
      SIGNIFICANT WEATHER AND/OR OBSTRUCTIONS TO VISIBILITY.
      SKY/WX - SKY CONDITION AND SIGNIFICANT WEATHER.
      TMP - AIR TEMPERATURE.    DP   - DEWPOINT TEMPERATURE.
      RH  - RELATIVE HUMIDITY.  PRES - PRESSURE.
      HX  - HEAT INDEX.         WCI  - WIND CHILL INDEX.

*  THESE STATIONS ARE NOT NWS OR FAA STATIONS AND ARE NOT UNDER
   NWS QUALITY CONTROL.

LAZ040-048-061>063-065-066-069-020600-
SOUTHEAST LOUISIANA

CITY           SKY/WX    TMP DP  RH WIND       PRES   REMARKS
N.O. AUDUBON     N/A     73  72  98 MISG        N/A
N.O. INTL ARPT MOCLDY    71  66  84 S6        30.05S
N.O. LAKEFRONT MOCLDY    74  67  78 S7        30.06S
SLIDELL        CLOUDY    72  69  90 SE5       30.05S
BATON ROUGE    PTCLDY    71  66  84 S9        30.04R
BOOTHVILLE     CLOUDY    73  70  90 SE10      30.07F
BELLE CHASSE   MOCLDY    70  67  90 S5        30.05S
BOGALUSA*        N/A     71  66  84 S3        30.08S
GALLIANO*      PTCLDY    68  66  94 CALM      30.06S
NEW ROADS*     FAIR      70  65  82 S5        30.03S
GONZALES*      FAIR      69  69 100 CALM      30.04S
HAMMOND*       CLOUDY    68  64  88 SE5       30.06S
HOUMA*         CLEAR     71  67  88 S6        30.05S
PORT FOURCHON* CLEAR     73  70  88 SE5       30.09F

$$

LAZ041-044-053-054-020600-
SOUTHWEST LOUISIANA

CITY           SKY/WX    TMP DP  RH WIND       PRES   REMARKS
LAKE CHARLES   CLEAR     70  67  90 S8        30.01S
LAFAYETTE      MOCLDY    71  67  87 S8        30.03F
PATTERSON      PTCLDY    70  64  83 S5        30.06S
SALT POINT       N/A     69  67  93 SE3       30.04S
NEW IBERIA     MOCLDY    68  66  93 S6        30.04F
CHENAULT AIRPK CLEAR     68  67  95 S6        30.02S

$$

LAZ027-028-020600-
CENTRAL LOUISIANA

CITY           SKY/WX    TMP DP  RH WIND       PRES   REMARKS
FORT POLK      CLOUDY    69  66  89 S12       29.99F
ALEXANDRIA INT CLOUDY    71  65  81 S8        29.99S
ALEXANDRIA     MOCLDY    72  65  78 S5        30.02R

$$

LAZ001-002-020600-
NORTHWEST LOUISIANA

CITY           SKY/WX    TMP DP  RH WIND       PRES   REMARKS
SHREVEPORT     MOCLDY    70  65  84 S13       29.92F
BARKSDALE AFB  MOCLDY    69  65  85 S12       29.93F
DTN SHREVEPORT PTCLDY    69  64  84 S10       29.93F

$$

LAZ014-016-020600-
NORTHEAST LOUISIANA

CITY           SKY/WX    TMP DP  RH WIND       PRES   REMARKS
MONROE         MOCLDY    69  64  84 S6        29.98S
TALLULAH       CLOUDY    70  60  70 S9        30.01R

$$




USA.gov is the U.S. government's official web portal to all federal, state and local government web resources and services.